Regional Weather Roundup
Issued by NWS

Home | Current Version | Previous Version | Graphics & Text | Print | Product List | Glossary On
Versions: 1 2 3 4 5 6 7 8 9 10 11 12 13 14 15 16 17 18 19 20 21 22 23 24 25 26 27 28 29 30 31 32 33 34 35 36 37 38 39 40 41 42 43 44 45 46 47 48 49 50
000
ASUS45 KBOI 301710
RWRID
WEATHER ROUNDUP FOR IDAHO
NATIONAL WEATHER SERVICE BOISE ID
1100 AM MDT WED JUL 30 2014

NOTE: "FAIR" INDICATES FEW OR NO CLOUDS BELOW 12000 FEET
WITH NO SIGNIFICANT WEATHER AND/OR OBSTRUCTIONS TO VISIBILITY

IDZ012-014-301800-
SOUTHWEST IDAHO


CITY           SKY/WX    TMP DP  RH WIND       PRES   REMARKS
BOISE          FAIR      78  53  41 NE6       30.15S
CALDWELL       FAIR      77  54  44 CALM      30.16S
MOUNTAIN HOME  PTSUNNY   77  54  44 E9        30.15S
$$

IDZ016-017-301800-
SOUTHCENTRAL IDAHO


CITY           SKY/WX    TMP DP  RH WIND       PRES   REMARKS
BURLEY         FAIR      74  53  48 VRB3      30.22S
JEROME         FAIR      77  53  43 CALM      30.23S
TWIN FALLS     FAIR      79  51  37 E5        30.23S
$$

IDZ019>023-301800-
SOUTHEAST IDAHO


CITY           SKY/WX    TMP DP  RH WIND       PRES   REMARKS
IDAHO FALLS    FAIR      77  53  43 NE5       30.27S
POCATELLO      FAIR      74  55  51 CALM      30.25F
REXBURG        FAIR      69  53  56 W3        30.28S
$$

IDZ006-010-011-018-031-032-301800-
CENTRAL IDAHO MOUNTAINS


CITY           SKY/WX    TMP DP  RH WIND       PRES   REMARKS
MCCALL         FAIR      75  47  36 S6        30.24F
HAILEY         MOSUNNY   72  55  56 SE7       30.31S
STANLEY          N/A     70  46  42 CALM      30.36S
SALMON         FAIR      70  52  52 CALM      30.21F
CHALLIS        FAIR      73  47  39 NE3       30.27F
$$

IDZ002-004-006-007-026-301800-
NORTHERN IDAHO


CITY           SKY/WX    TMP DP  RH WIND       PRES   REMARKS
LEWISTON       FAIR      82  48  30 NE6       30.05S
LOWELL           N/A     75  55  49 CALM      30.09F
COEUR D`ALENE  FAIR      79  52  38 S7        30.07F
MULLAN PASS    FAIR      73  41  31 CALM      30.31S
$$



USA.gov is the U.S. government's official web portal to all federal, state and local government web resources and services.